GW1468 Weather Reports


time (UTC)temp
F
wind
direction
speed
knots
gust
knots
rain 1hr
in
rain 24hr
in
rain mn
in
humidity
%
barometer
mb
20260906101125 67 353 0.0 0.0 0.00 0.00 0.03 99
20260906100223 67 353 0.0 0.0 0.00 0.00 0.03 99
20260906095751 67 353 0.0 0.0 0.00 0.00 0.03 99
20260906095321 67 353 0.0 0.0 0.00 0.00 0.03 99
20260906094902 67 353 0.0 0.0 0.00 0.00 0.03 99
20260906093946 67 353 0.0 0.0 0.00 0.00 0.03 99
20260906093529 67 353 0.0 0.0 0.00 0.00 0.03 99
20260906093114 67 353 0.0 0.0 0.00 0.00 0.03 99
20260906092656 67 353 0.0 0.0 0.00 0.00 0.03 99
20260906091340 67 354 0.0 0.0 0.00 0.00 0.03 99
20260906090908 67 354 0.0 0.0 0.00 0.00 0.03 99
20260906090002 67 353 0.0 0.0 0.00 0.00 0.03 99
20260906085530 68 353 0.0 0.0 0.00 0.00 0.03 99
20260906085113 67 353 0.0 0.0 0.00 0.00 0.03 99
20260906084642 67 353 0.0 0.0 0.00 0.00 0.03 99
20260906084212 67 353 0.0 0.0 0.00 0.00 0.03 99
20260906083739 68 353 0.0 0.0 0.00 0.00 0.03 99
20260906083323 68 353 0.0 0.0 0.00 0.00 0.03 99
20260906082904 68 353 0.0 0.0 0.00 0.00 0.03 99
20260906082433 67 353 0.0 0.0 0.00 0.00 0.03 99
20260906082002 67 353 0.0 0.0 0.00 0.00 0.03 99
20260906081515 68 353 0.0 0.9 0.00 0.00 0.03 99
20260906081044 68 247 0.0 0.0 0.00 0.00 0.03 99
20260906080614 68 238 0.0 0.0 0.00 0.00 0.03 99
20260906080144 68 175 1.7 1.7 0.00 0.00 0.03 99
20260906075726 68 336 0.0 0.9 0.00 0.00 0.03 99
20260906074837 69 20 0.0 0.0 0.00 0.00 0.03 99
20260906074422 69 20 0.0 0.0 0.00 0.00 0.03 99
20260906074004 69 23 0.0 0.0 0.00 0.00 0.03 99
20260906073533 69 5 0.0 0.0 0.00 0.00 0.02 99
20260906073116 69 353 0.0 0.0 0.00 0.00 0.00 99
20260906072227 69 2 0.0 0.0 0.00 0.00 0.00 99
20260906071756 69 2 0.9 0.9 0.00 0.00 0.00 99
20260906071340 69 336 0.0 0.9 0.00 0.00 0.00 99
20260906070422 69 108 0.9 1.7 0.00 0.00 0.00 99
20260906065518 69 23 0.0 0.0 0.00 0.00 0.00 99
20260906064630 69 23 0.0 0.0 0.00 0.00 0.00 99
20260906063725 69 23 0.0 0.9 0.00 0.00 0.00 99
20260906063307 69 23 0.0 0.9 0.00 0.00 0.00 99
20260906062851 69 346 0.0 0.0 0.00 0.00 0.00 99
20260906062436 69 346 0.0 0.9 0.00 0.00 0.00 99
20260906062002 69 338 0.0 0.0 0.00 0.00 0.00 99
20260906061531 69 347 0.0 0.0 0.00 0.00 0.00 99
20260906061114 69 348 0.0 0.0 0.00 0.00 0.00 99
20260906060657 69 344 0.0 0.0 0.00 0.00 0.00 99
20260906060242 69 344 0.0 0.0 0.00 0.00 0.00 99
20260906055825 69 344 0.0 0.0 0.00 0.00 0.00 99
20260906055410 69 344 0.0 0.0 0.00 0.00 0.00 99
20260906054954 69 344 0.0 0.0 0.00 0.00 0.00 99
20260906054053 69 331 0.0 0.0 0.00 0.00 0.00 99
20260906053639 69 302 0.0 0.9 0.00 0.00 0.00 99
20260906053208 69 308 0.0 0.9 0.00 0.00 0.00 99
20260906052737 69 335 0.0 0.9 0.00 0.00 0.00 99
20260906052306 69 298 0.9 0.9 0.00 0.00 0.00 99
20260906051834 69 358 0.0 0.0 0.00 0.00 0.00 99
20260906050918 69 348 0.0 0.0 0.00 0.00 0.00 99
20260906050503 69 27 0.0 0.0 0.00 0.00 0.00 99
20260906050033 69 27 0.0 0.0 0.00 0.00 0.00 99
20260906045616 69 27 0.0 0.0 0.00 0.00 0.00 99
20260906045159 69 27 0.0 0.0 0.00 0.00 0.00 99
20260906044743 69 27 0.0 0.0 0.00 0.00 0.00 99
20260906044312 69 27 0.0 0.0 0.00 0.00 0.00 99
20260906043840 69 27 0.0 0.0 0.00 0.00 0.00 99
20260906043410 69 27 0.0 0.0 0.00 0.00 0.00 99
20260906042509 69 27 0.0 0.0 0.00 0.00 0.00 99
20260906042054 69 27 0.0 0.0 0.00 0.00 0.00 99
20260906041622 69 27 0.0 0.0 0.00 0.00 0.00 99
20260906041136 69 27 0.0 0.0 0.00 0.00 0.00 99
20260906040719 69 27 0.0 0.0 0.00 0.00 0.00 99
20260906040302 69 27 0.0 0.0 0.00 0.00 0.00 99
20260906035832 69 27 0.0 0.0 0.00 0.00 0.42 99
20260906035415 69 27 0.0 0.0 0.00 0.00 0.42 99
20260906034958 69 27 0.0 0.0 0.00 0.00 0.42 99
20260906034545 69 27 0.0 0.0 0.00 0.00 0.42 99
20260906033610 70 27 0.0 0.9 0.00 0.00 0.42 99
20260906033156 70 27 0.0 0.0 0.00 0.00 0.42 99
20260906032721 70 27 0.0 0.0 0.00 0.00 0.42 99
20260906032250 70 27 0.0 0.0 0.00 0.00 0.42 99
20260906031348 70 27 0.0 0.0 0.00 0.00 0.42 99
20260906030444 70 27 0.0 0.0 0.00 0.00 0.42 99
20260906030027 70 27 0.0 0.0 0.00 0.00 0.42 99
20260906025556 70 27 0.0 0.0 0.00 0.00 0.42 99
20260906025123 70 27 0.0 0.0 0.00 0.00 0.42 99
20260906024650 70 27 0.0 0.0 0.00 0.00 0.42 99
20260906024219 70 27 0.0 0.0 0.00 0.00 0.42 99
20260906023746 70 27 0.0 0.0 0.00 0.00 0.42 99
20260906022844 70 27 0.0 0.0 0.00 0.00 0.42 99
20260906022412 70 27 0.0 0.0 0.00 0.00 0.42 99
20260906021956 70 27 0.0 0.0 0.00 0.00 0.42 99
20260906021526 70 27 0.0 0.0 0.00 0.00 0.42 99
20260906021109 71 27 0.0 0.0 0.00 0.00 0.42 99
20260906020621 71 27 0.0 0.0 0.00 0.00 0.42 99
20260906020150 71 27 0.0 0.0 0.00 0.00 0.42 99
20260906015305 71 27 0.0 0.9 0.00 0.00 0.42 99
20260906014829 71 27 0.0 0.0 0.00 0.00 0.42 99
20260906013941 71 27 0.0 0.0 0.00 0.00 0.42 99
20260906013524 71 27 0.0 0.0 0.00 0.00 0.42 99
20260906013051 71 27 0.0 0.0 0.00 0.00 0.42 99
20260906011731 72 27 0.0 0.0 0.00 0.00 0.42 99
20260906011245 72 27 0.0 0.0 0.00 0.00 0.42 99
20260906010341 72 27 0.0 0.0 0.00 0.00 0.42 99
20260906005924 72 27 0.0 0.0 0.00 0.00 0.42 99
20260906005508 72 27 0.0 0.0 0.00 0.00 0.42 99
20260906005036 72 27 0.0 0.9 0.00 0.00 0.42 99
20260906004132 72 27 0.9 0.9 0.00 0.00 0.42 99
20260906003714 72 27 0.0 0.0 0.00 0.00 0.42 99
20260906003258 72 27 0.0 0.0 0.00 0.00 0.42 99
20260906002811 72 27 0.0 0.0 0.00 0.00 0.42 99
20260906002354 72 28 0.0 0.0 0.00 0.00 0.42 99
20260906001937 72 43 0.0 0.9 0.00 0.00 0.42 99
20260906001521 72 30 0.9 0.9 0.00 0.00 0.42 99
20260906001049 72 30 0.9 0.9 0.00 0.00 0.42 99
20260906000204 73 27 0.0 0.0 0.00 0.00 0.42 98
20260905235744 73 26 0.0 0.0 0.00 0.00 0.42 98
20260905235310 73 27 0.0 0.0 0.00 0.00 0.42 98
20260905234839 73 27 0.0 0.9 0.00 0.00 0.42 98
20260905234423 73 27 0.9 0.9 0.00 0.00 0.42 98
20260905234008 73 27 0.0 0.9 0.00 0.00 0.42 97
20260905233553 73 27 0.0 0.9 0.00 0.00 0.42 97
20260905232654 74 27 0.0 0.0 0.00 0.00 0.42 96
20260905232226 74 27 0.0 0.0 0.00 0.00 0.42 95
20260905231756 74 27 0.0 0.0 0.00 0.00 0.42 95
20260905230911 75 27 0.0 0.9 0.00 0.00 0.42 94
20260905230441 75 27 0.0 0.9 0.00 0.00 0.42 93
20260905230010 75 27 0.9 1.7 0.00 0.00 0.42 92
20260905225055 76 31 0.9 1.7 0.00 0.00 0.42 89
20260905224638 78 30 0.0 0.9 0.00 0.00 0.42 88
20260905224220 77 36 0.0 0.9 0.00 0.00 0.42 89
20260905223802 77 36 0.9 0.9 0.00 0.00 0.42 88
20260905223333 77 36 0.9 1.7 0.00 0.00 0.42 87
20260905222917 78 36 1.7 1.7 0.00 0.00 0.42 85
20260905222503 78 36 0.9 1.7 0.00 0.00 0.42 85
20260905222047 78 28 0.0 0.0 0.00 0.00 0.42 86
20260905221632 78 29 0.9 1.7 0.00 0.00 0.42 86
20260905220730 79 25 0.0 0.9 0.00 0.00 0.42 86
20260905215838 80 25 0.0 0.9 0.00 0.00 0.42 85
20260905214951 79 25 0.9 0.9 0.00 0.00 0.42 85
20260905214521 80 8 0.9 0.9 0.00 0.00 0.42 82
20260905214105 80 7 0.9 0.9 0.00 0.00 0.42 81
20260905213636 81 344 0.0 0.9 0.00 0.00 0.42 82
20260905212252 82 7 0.9 0.9 0.00 0.00 0.42 75
20260905211407 82 4 0.0 0.9 0.00 0.00 0.42 79
20260905210950 82 3 0.0 0.9 0.00 0.00 0.42 76
20260905210536 83 1 0.9 0.9 0.00 0.00 0.42 79
20260905210105 82 43 0.9 1.7 0.00 0.00 0.42 76
20260905205617 81 35 0.9 1.7 0.00 0.00 0.42 79
20260905204719 79 38 0.0 1.7 0.00 0.00 0.42 78
20260905204301 80 36 0.9 1.7 0.00 0.00 0.42 80
20260905203845 81 36 0.9 2.6 0.00 0.00 0.42 78
20260905203430 81 43 0.9 1.7 0.00 0.00 0.42 77
20260905203015 82 34 0.9 1.7 0.00 0.00 0.42 79
20260905202601 82 25 0.9 0.9 0.00 0.00 0.42 76
20260905202146 81 39 0.0 1.7 0.00 0.00 0.42 80
20260905201732 82 51 0.0 0.9 0.00 0.00 0.42 74
20260905201316 82 41 0.9 1.7 0.00 0.00 0.42 76
20260905200846 81 34 0.9 1.7 0.00 0.00 0.42 78
20260905200401 81 52 0.9 1.7 0.00 0.00 0.42 78
20260905195946 82 49 0.0 1.7 0.00 0.00 0.42 78
20260905195516 83 35 0.9 0.9 0.00 0.00 0.42 75
20260905195100 83 27 0.9 1.7 0.00 0.00 0.42 75
20260905194155 83 337 0.9 1.7 0.00 0.00 0.42 76
20260905193708 82 30 0.0 1.7 0.00 0.00 0.42 82
20260905193252 84 24 0.9 1.7 0.00 0.00 0.42 77
20260905191933 82 342 0.9 0.9 0.00 0.00 0.42 80
20260905191049 83 337 0.0 0.9 0.00 0.00 0.42 80
20260905190617 83 345 0.0 0.0 0.00 0.00 0.42 77
20260905185730 82 192 2.6 3.5 0.00 0.00 0.42 77
20260905185314 82 176 1.7 5.2 0.00 0.00 0.42 76
20260905184843 81 162 1.7 6.1 0.00 0.00 0.42 78
20260905184429 81 175 2.6 6.1 0.00 0.00 0.42 79
20260905183958 81 178 1.7 1.7 0.00 0.00 0.42 81
20260905183527 80 249 1.7 3.5 0.00 0.00 0.42 81
20260905183110 80 212 2.6 2.6 0.00 0.00 0.42 81
20260905182652 80 164 2.6 3.5 0.00 0.00 0.42 82
20260905182223 80 196 0.9 2.6 0.00 0.00 0.42 87
20260905181805 79 171 1.7 2.6 0.00 0.00 0.42 85
20260905180914 79 189 1.7 2.6 0.00 0.00 0.42 85
20260905180012 79 172 3.5 5.2 0.00 0.00 0.42 84
20260905175557 79 331 2.6 2.6 0.00 0.00 0.42 86
20260905175143 78 175 1.7 3.5 0.00 0.00 0.42 88
20260905174726 78 252 0.9 1.7 0.00 0.00 0.42 90
20260905174257 77 194 2.6 2.6 0.00 0.00 0.42 89
20260905173842 76 324 0.0 3.5 0.00 0.00 0.42 90
20260905172955 75 335 1.7 2.6 0.00 0.00 0.42 93
20260905172539 74 310 0.9 2.6 0.00 0.00 0.42 95
20260905172109 74 350 0.0 0.9 0.00 0.00 0.42 96
20260905171651 73 334 0.0 1.7 0.00 0.00 0.42 97
20260905171238 73 304 0.0 0.9 0.00 0.00 0.42 97
20260905170805 72 321 0.9 0.9 0.00 0.00 0.42 99
20260905170335 72 293 0.0 0.9 0.00 0.00 0.42 99
20260905165918 71 324 0.0 0.9 0.00 0.00 0.42 99
20260905165501 71 334 0.0 0.9 0.00 0.00 0.42 99
20260905165045 71 275 0.9 0.9 0.00 0.00 0.42 99
20260905164629 71 332 0.0 0.9 0.00 0.00 0.42 99
20260905164214 70 345 0.0 0.0 0.00 0.00 0.42 99
20260905163742 70 8 0.0 0.0 0.00 0.00 0.42 99
20260905163312 70 8 0.0 0.0 0.00 0.00 0.42 99
20260905162840 70 8 0.0 0.0 0.00 0.00 0.42 99
20260905161951 69 335 0.0 0.9 0.00 0.00 0.42 99
20260905161536 69 336 0.0 0.0 0.00 0.00 0.42 99
20260905160649 69 314 0.9 0.9 0.00 0.00 0.42 99
20260905155332 69 338 0.0 0.9 0.00 0.00 0.41 99
20260905154847 69 24 0.0 0.0 0.00 0.00 0.41 99
20260905154417 69 25 0.9 0.9 0.00 0.00 0.40 99
20260905153527 70 22 0.0 0.0 0.00 0.00 0.38 99
20260905153111 70 22 0.0 0.9 0.00 0.00 0.36 99
20260905152653 71 23 0.0 0.0 0.00 0.00 0.35 99
20260905152236 71 23 0.0 0.9 0.00 0.00 0.35 99
20260905151347 71 28 0.9 0.9 0.00 0.00 0.34 99
20260905150931 72 24 0.0 1.7 0.00 0.00 0.34 99
20260905150513 72 26 0.0 0.9 0.00 0.00 0.31 99
20260905150057 73 37 1.7 1.7 0.00 0.00 0.28 99
20260905145641 74 27 0.0 3.5 0.00 0.00 0.20 98
20260905145225 75 180 2.6 2.6 0.00 0.00 0.07 96
20260905144808 76 52 0.9 3.5 0.00 0.00 0.00 92
20260905144352 77 325 0.0 0.0 0.00 0.00 0.00 91
20260905143935 77 295 0.9 1.7 0.00 0.00 0.00 89
20260905143504 78 50 0.9 1.7 0.00 0.00 0.00 90
20260905143032 78 54 0.0 3.5 0.00 0.00 0.00 89
20260905142615 78 39 0.0 1.7 0.00 0.00 0.00 90
20260905142159 79 153 3.5 6.1 0.00 0.00 0.00 87
20260905141740 80 173 0.0 0.0 0.00 0.00 0.00 87
20260905141325 80 267 0.0 0.0 0.00 0.00 0.00 88
20260905140838 79 339 0.0 0.0 0.00 0.00 0.00 88
20260905140422 78 335 0.0 0.0 0.00 0.00 0.00 90
20260905140005 77 334 0.0 0.0 0.00 0.00 0.00 92
20260905135547 76 333 0.0 0.0 0.00 0.00 0.00 93
20260905135130 75 328 0.0 0.0 0.00 0.00 0.00 93
20260905134658 75 313 0.0 0.0 0.00 0.00 0.00 94
20260905134242 74 330 0.0 0.0 0.00 0.00 0.00 94
20260905132919 73 297 0.0 0.0 0.00 0.00 0.00 97
20260905132448 72 330 0.0 0.0 0.00 0.00 0.00 97
20260905132017 72 310 0.0 0.0 0.00 0.00 0.00 99
20260905131546 71 342 0.0 0.0 0.00 0.00 0.00 99
20260905131129 70 344 0.0 0.0 0.00 0.00 0.00 99
20260905130713 70 352 0.0 0.0 0.00 0.00 0.00 99
20260905125822 69 346 0.0 0.0 0.00 0.00 0.00 99
20260905125404 69 342 0.0 0.0 0.00 0.00 0.00 99
20260905124933 69 340 0.0 0.0 0.00 0.00 0.00 99
20260905124501 69 347 0.0 0.0 0.00 0.00 0.00 99
20260905124046 69 343 0.0 0.0 0.00 0.00 0.00 99
20260905123616 68 343 0.0 0.0 0.00 0.00 0.00 99
20260905123200 68 352 0.0 0.0 0.00 0.00 0.00 99
20260905122743 68 352 0.0 0.0 0.00 0.00 0.00 99
20260905121838 67 352 0.0 0.0 0.00 0.00 0.00 99
20260905120507 67 353 0.0 0.0 0.00 0.00 0.00 99
20260905120050 67 353 0.0 0.0 0.00 0.00 0.00 99
20260905115604 67 353 0.0 0.0 0.00 0.00 0.00 99
20260905115132 67 353 0.0 0.0 0.00 0.00 0.00 99
20260905114715 67 353 0.0 0.0 0.00 0.00 0.00 99
20260905114245 67 353 0.0 0.0 0.00 0.00 0.00 99
20260905113830 67 353 0.0 0.0 0.00 0.00 0.00 99
20260905112459 67 353 0.0 0.0 0.00 0.00 0.00 99
20260905111614 67 353 0.0 0.0 0.00 0.00 0.00 99
20260905111157 67 353 0.0 0.0 0.00 0.00 0.00 99
20260905110312 67 353 0.0 0.0 0.00 0.00 0.00 99
20260905105857 67 353 0.0 0.0 0.00 0.00 0.00 99
20260905104939 67 353 0.0 0.0 0.00 0.00 0.00 99
20260905104523 67 353 0.0 0.0 0.00 0.00 0.00 99
20260905104107 67 353 0.0 0.0 0.00 0.00 0.00 99
20260905103651 67 353 0.0 0.0 0.00 0.00 0.00 99
20260905103220 67 353 0.0 0.0 0.00 0.00 0.00 99
20260905102334 67 353 0.0 0.0 0.00 0.00 0.00 99
20260905101450 67 353 0.0 0.0 0.00 0.00 0.00 99